sat.trackr.live / text

‹ back to catalog

2025-313D

NORAD 67251 · 2025-313D

PAYLOAD ACTIVE UNKNOWN

§ Identity

Operator
Country
TBD
Launch date
2025-12-28
Launch site
VOSTO
Launch vehicle
Mass (kg)
RCS (m²)

External: N2YO · Heavens-Above · Gunter

§ Orbital elements

Epoch: 2026-09-20T22:05:40.230528Z

Period
96.64 min
Inclination
97.5596°
Eccentricity
0.0147861
Mean motion
14.90005835 rev/d
Perigee alt
494.8 km
Apogee alt
701.1 km
Semi-major
6,976.1 km
B*
1.0437e-4
RAAN
330.1594°
Arg perigee
9.4948°
Mean anomaly
350.9010°
Rev number
3,965

§ Raw data

2025-313D1 67251U 25313D   26263.92060452  .00001173  00000+0  10437-3 0  99912 67251  97.5596 330.1594 0147861   9.4948 350.9010 14.90005835 39656

JSON: /api/v1/satellites/67251 · /tle

For live sub-satellite position, see the globe view (requires WebGL).

§ Visibility from observer

Set your observer location to see the next 7 days of passes ≥ 10°. The values pass through the URL so the page stays shareable.

No JS? Fill the form by hand. The geolocation button needs JavaScript.